When you browse on this site, cookies collect data to enhance your experience and personalize the content and advertising you see.
Visit our Privacy Policy to learn more. By continuing to use the site, you agree to this use of cookies and data.
  • In Italy
  • List of Countries
  • For 7 days
  • Water Temperature
  • Satellite Maps
  • Weather Map
  • Weather Widgets
  • user-avatar
    Login

    Hourly Weather Argelaguer

    Today, 19 November, Monday

    Time Temperature Precipitation Wind Pressure Humidity
    00:00 +8°C° 0 mm 3 mps 709 mmHg 93%
    01:00 +8°C° 0.2 mm 3 mps 708 mmHg 93%
    02:00 +8°C° 0.2 mm 3 mps 708 mmHg 93%
    03:00 +8°C° 0.2 mm 3 mps 707 mmHg 92%
    04:00 +8°C° 0.1 mm 3 mps 707 mmHg 92%
    05:00 +8°C° 0.1 mm 3 mps 707 mmHg 92%
    06:00 +8°C° 0 mm 3 mps 706 mmHg 91%
    07:00 +8°C° 0.2 mm 3 mps 706 mmHg 90%
    08:00 +8°C° 0.2 mm 3 mps 706 mmHg 89%
    09:00 +8°C° 0.2 mm 3 mps 705 mmHg 88%
    10:00 +8°C° 0.2 mm 3 mps 705 mmHg 87%
    11:00 +9°C° 0.2 mm 3 mps 705 mmHg 86%
    12:00 +9°C° 0 mm 3 mps 704 mmHg 84%
    13:00 +8°C° 0.1 mm 3 mps 704 mmHg 85%
    14:00 +8°C° 0.1 mm 3 mps 704 mmHg 85%
    15:00 +8°C° 0.1 mm 3 mps 703 mmHg 86%
    16:00 +7°C° 0.1 mm 3 mps 703 mmHg 88%
    17:00 +7°C° 0.1 mm 3 mps 703 mmHg 90%
    18:00 +6°C° 0.1 mm 2 mps 703 mmHg 92%
    19:00 +6°C° 0.3 mm 2 mps 703 mmHg 92%
    20:00 +6°C° 0.3 mm 2 mps 703 mmHg 92%
    21:00 +6°C° 0.3 mm 2 mps 703 mmHg 93%
    22:00 +6°C° 0.4 mm 2 mps 703 mmHg 93%
    23:00 +6°C° 0.4 mm 2 mps 703 mmHg 93%

    Tomorrow, 20 November, Tuesday

    Time Temperature Precipitation Wind Pressure Humidity
    00:00 +6°C° 0.4 mm 2 mps 703 mmHg 93%
    01:00 +6°C° 0.2 mm 2 mps 703 mmHg 94%
    02:00 +7°C° 0.2 mm 1 mps 703 mmHg 94%
    03:00 +7°C° 0.2 mm 1 mps 703 mmHg 94%
    04:00 +7°C° 0.1 mm 1 mps 703 mmHg 94%
    05:00 +7°C° 0.1 mm 1 mps 703 mmHg 95%
    06:00 +7°C° 0.1 mm 1 mps 703 mmHg 95%
    07:00 +7°C° 0 mm 1 mps 703 mmHg 93%
    08:00 +8°C° 0 mm 1 mps 703 mmHg 91%
    09:00 +8°C° 0 mm 2 mps 704 mmHg 89%
    10:00 +8°C° 0.2 mm 2 mps 704 mmHg 89%
    11:00 +9°C° 0.2 mm 2 mps 704 mmHg 89%
    12:00 +9°C° 0.2 mm 2 mps 704 mmHg 89%
    13:00 +10°C° 0.2 mm 2 mps 704 mmHg 89%
    14:00 +10°C° 0.2 mm 2 mps 703 mmHg 88%
    15:00 +10°C° 0.2 mm 2 mps 703 mmHg 88%
    16:00 +9°C° 0.1 mm 2 mps 703 mmHg 90%
    17:00 +9°C° 0.1 mm 2 mps 704 mmHg 92%
    18:00 +8°C° 0.1 mm 2 mps 704 mmHg 94%
    19:00 +8°C° 0.1 mm 2 mps 704 mmHg 94%
    20:00 +8°C° 0.1 mm 2 mps 704 mmHg 94%
    21:00 +8°C° 0.1 mm 2 mps 705 mmHg 94%
    22:00 +7°C° 0.2 mm 2 mps 705 mmHg 94%
    23:00 +7°C° 0.2 mm 2 mps 705 mmHg 94%

    Day after tomorrow, 21 November, Wednesday

    Time Temperature Precipitation Wind Pressure Humidity
    00:00 +7°C° 0.2 mm 2 mps 706 mmHg 94%
    01:00 +7°C° 0 mm 2 mps 706 mmHg 93%
    02:00 +6°C° 0 mm 2 mps 706 mmHg 92%
    03:00 +6°C° 0 mm 2 mps 707 mmHg 91%
    04:00 +5°C° 0 mm 2 mps 707 mmHg 90%
    05:00 +5°C° 0 mm 2 mps 707 mmHg 89%
    06:00 +5°C° 0 mm 2 mps 708 mmHg 88%
    07:00 +7°C° 0 mm 1 mps 708 mmHg 84%
    08:00 +8°C° 0 mm 1 mps 709 mmHg 81%
    09:00 +9°C° 0 mm 1 mps 709 mmHg 78%
    10:00 +9°C° 0 mm 2 mps 710 mmHg 75%
    11:00 +12°C° 0 mm 2 mps 710 mmHg 72%
    12:00 +12°C° 0 mm 3 mps 710 mmHg 69%
    13:00 +12°C° 0 mm 3 mps 710 mmHg 70%
    14:00 +12°C° 0 mm 3 mps 710 mmHg 70%
    15:00 +12°C° 0 mm 3 mps 710 mmHg 70%
    16:00 +10°C° 0 mm 3 mps 711 mmHg 76%
    17:00 +9°C° 0 mm 3 mps 711 mmHg 82%
    18:00 +7°C° 0 mm 2 mps 711 mmHg 87%
    19:00 +7°C° 0 mm 2 mps 712 mmHg 87%
    20:00 +7°C° 0 mm 2 mps 712 mmHg 87%
    21:00 +6°C° 0 mm 2 mps 713 mmHg 86%
    22:00 +6°C° 0 mm 2 mps 713 mmHg 85%
    23:00 +6°C° 0 mm 2 mps 713 mmHg 83%

    22 November, Thursday

    Time Temperature Precipitation Wind Pressure Humidity
    00:00 +6°C° 0 mm 2 mps 713 mmHg 81%
    01:00 +6°C° 0 mm 2 mps 713 mmHg 80%
    02:00 +6°C° 0 mm 1 mps 713 mmHg 79%
    03:00 +6°C° 0 mm 1 mps 713 mmHg 78%
    04:00 +6°C° 0 mm 1 mps 714 mmHg 78%
    05:00 +6°C° 0 mm 1 mps 714 mmHg 78%
    06:00 +6°C° 0 mm 1 mps 714 mmHg 79%
    07:00 +7°C° 0 mm 1 mps 714 mmHg 76%
    08:00 +9°C° 0 mm 1 mps 715 mmHg 74%
    09:00 +10°C° 0 mm 1 mps 715 mmHg 72%
    10:00 +12°C° 0 mm 2 mps 715 mmHg 68%
    11:00 +13°C° 0 mm 2 mps 715 mmHg 63%
    12:00 +14°C° 0 mm 3 mps 715 mmHg 59%
    13:00 +13°C° 0 mm 3 mps 715 mmHg 61%
    14:00 +13°C° 0 mm 3 mps 715 mmHg 63%
    15:00 +14°C° 0 mm 2 mps 715 mmHg 65%
    16:00 +12°C° 0 mm 2 mps 715 mmHg 70%
    17:00 +9°C° 0 mm 2 mps 715 mmHg 75%
    18:00 +8°C° 0 mm 2 mps 715 mmHg 81%
    19:00 +8°C° 0 mm 2 mps 715 mmHg 78%
    20:00 +8°C° 0 mm 2 mps 716 mmHg 75%
    21:00 +9°C° 0 mm 1 mps 716 mmHg 73%
    22:00 +8°C° 0 mm 1 mps 716 mmHg 73%
    23:00 +8°C° 0 mm 1 mps 716 mmHg 73%

    23 November, Friday

    Time Temperature Precipitation Wind Pressure Humidity
    00:00 +8°C° 0 mm 1 mps 716 mmHg 73%
    01:00 +8°C° 0 mm 1 mps 716 mmHg 73%
    02:00 +8°C° 0 mm 1 mps 715 mmHg 73%
    03:00 +8°C° 0 mm 1 mps 715 mmHg 74%
    04:00 +8°C° 0 mm 1 mps 715 mmHg 73%
    05:00 +9°C° 0 mm 1 mps 715 mmHg 73%
    06:00 +9°C° 0 mm 1 mps 715 mmHg 72%
    07:00 +10°C° 0.1 mm 1 mps 715 mmHg 72%
    08:00 +11°C° 0.1 mm 1 mps 716 mmHg 72%
    09:00 +12°C° 0.1 mm 1 mps 716 mmHg 72%
    10:00 +12°C° 0.1 mm 2 mps 715 mmHg 72%
    11:00 +13°C° 0.1 mm 2 mps 715 mmHg 73%
    12:00 +14°C° 0.1 mm 2 mps 715 mmHg 73%
    13:00 +13°C° 0 mm 3 mps 714 mmHg 74%
    14:00 +13°C° 0 mm 3 mps 714 mmHg 75%
    15:00 +14°C° 0 mm 3 mps 713 mmHg 76%
    16:00 +12°C° 0 mm 3 mps 713 mmHg 80%
    17:00 +11°C° 0 mm 3 mps 712 mmHg 84%
    18:00 +10°C° 0 mm 3 mps 712 mmHg 88%
    19:00 +10°C° 0.1 mm 3 mps 712 mmHg 87%
    20:00 +10°C° 0.1 mm 3 mps 712 mmHg 87%
    21:00 +10°C° 0.1 mm 3 mps 712 mmHg 86%
    22:00 +10°C° 0.6 mm 3 mps 712 mmHg 88%
    23:00 +10°C° 0.6 mm 3 mps 712 mmHg 90%

    24 November, Saturday

    Time Temperature Precipitation Wind Pressure Humidity
    00:00 +10°C° 0.6 mm 3 mps 712 mmHg 91%
    01:00 +10°C° 0.1 mm 3 mps 712 mmHg 91%
    02:00 +9°C° 0.1 mm 3 mps 712 mmHg 92%
    03:00 +8°C° 0.1 mm 3 mps 712 mmHg 92%
    04:00 +8°C° 0 mm 3 mps 713 mmHg 91%
    05:00 +7°C° 0 mm 2 mps 713 mmHg 91%
    06:00 +7°C° 0 mm 2 mps 713 mmHg 90%
    07:00 +8°C° 0 mm 2 mps 714 mmHg 86%
    08:00 +9°C° 0 mm 2 mps 715 mmHg 82%
    09:00 +10°C° 0 mm 2 mps 715 mmHg 79%
    10:00 +10°C° 0 mm 2 mps 716 mmHg 74%
    11:00 +12°C° 0 mm 2 mps 716 mmHg 70%
    12:00 +13°C° 0 mm 2 mps 716 mmHg 65%
    13:00 +12°C° 0.1 mm 2 mps 716 mmHg 68%
    14:00 +12°C° 0.1 mm 2 mps 716 mmHg 71%
    15:00 +10°C° 0.1 mm 2 mps 716 mmHg 74%
    16:00 +10°C° 0 mm 2 mps 716 mmHg 77%
    17:00 +9°C° 0 mm 2 mps 716 mmHg 80%
    18:00 +9°C° 0 mm 1 mps 716 mmHg 84%
    19:00 +9°C° 0 mm 1 mps 717 mmHg 84%
    20:00 +9°C° 0 mm 1 mps 717 mmHg 85%
    21:00 +7°C° 0 mm 2 mps 717 mmHg 86%
    22:00 +7°C° 0 mm 2 mps 717 mmHg 86%
    23:00 +7°C° 0 mm 2 mps 717 mmHg 87%
    Show more